Flag for Canada Weather past 2 weeks in Kelowna, British Columbia, Canada

Now
64 °F

Partly sunny.


Feels Like: 64 °F
Forecast: 42 / 68 °F
Wind: 12 mph from North

Location: Kelowna Airport

Current Time: Sep 4, 2015 at 2:44:23 PM

Latest Report: Sep 4, 2015 at 2:00 PM


Visibility: 9 mi

Pressure: 29.99 "Hg

Humidity: 40%

Dew point: 39 °F

Location of KelownaLocation

Historic Weather in Kelowna — Graph

°F

Kelowna temperature yesterday

Maximum temperature yesterday: 66 °F (at 3:00 PM)
Minimum temperature yesterday: 43 °F (at 7:00 AM)
Average temperature yesterday: 55 °F

Past Weeks' High & Low Weather Summary

 TemperatureHumidityPressure
High88 °F (Aug 20, 3:00 PM)100% (Sep 2, 5:00 AM)30.22 "Hg (Sep 2, 5:00 AM)
Low41 °F (Aug 22, 5:00 AM)13% (Aug 27, 5:00 PM)29.47 "Hg (Aug 29, 10:00 AM)
Average63 °F56%29.87 "Hg
* Reported Aug 20 1:03 PM — Sep 4 1:00 PM, Kelowna, Weather by CustomWeather, © 2015

Note: Actual official high and low records may vary slightly from our data, if they occured in-between our weather recording intervals... More about our weather records

Advertising

Kelowna weather history for previous 24 hours

 ConditionsComfort  
Time TempWeatherWind HumidityBarometerVisibility
1:00 PM
Fri, Sep 4
63 °FSunny.16 mph42%30.01 "Hg9 mi
12:00 PM59 °FSunny.15 mph51%30.03 "Hg9 mi
11:00 AM59 °FSunny.18 mph51%30.04 "Hg9 mi
10:00 AM55 °FSunny.12 mph63%30.06 "Hg9 mi
9:00 AM54 °FSunny.10 mph63%30.06 "Hg9 mi
8:00 AM48 °FSunny.2 mph76%30.07 "Hg9 mi
7:00 AM41 °FClear.3 mph87%30.06 "Hg9 mi
6:00 AM43 °FClear.7 mph81%30.04 "Hg9 mi
5:00 AM45 °FPassing clouds.5 mph81%30.03 "Hg9 mi
4:00 AM46 °FPassing clouds.5 mph82%30.02 "Hg9 mi
3:00 AM50 °FMostly cloudy.5 mph71%30.01 "Hg9 mi
2:00 AM50 °FMostly cloudy.6 mph71%30.02 "Hg9 mi
1:00 AM54 °FMostly cloudy.2 mph63%30.01 "Hg9 mi
12:00 AM54 °FOvercast.5 mph63%30.00 "Hg9 mi
11:00 PM
Thu, Sep 3
55 °FOvercast.12 mph59%29.99 "Hg9 mi
10:00 PM55 °FPartly cloudy.12 mph55%29.98 "Hg9 mi
9:00 PM57 °FPassing clouds.10 mph48%29.96 "Hg9 mi
8:00 PM59 °FBroken clouds.12 mph42%29.93 "Hg9 mi
7:00 PM59 °FSunny.9 mph45%29.91 "Hg9 mi
6:00 PM64 °FSunny.12 mph32%29.89 "Hg9 mi
5:00 PM66 °FSunny.8 mph30%29.88 "Hg9 mi
4:00 PM66 °FSunny.5 mph28%29.89 "Hg9 mi
3:00 PM66 °FSunny.12 mph32%29.90 "Hg9 mi
2:00 PM64 °FScattered clouds.9 mph40%29.92 "Hg9 mi
Weather by CustomWeather, © 2015

See weather overviewHow to use our weather pages